Regional Weather Roundup
Issued by NWS Little Rock, AR

Home | Current Version | Previous Version | Text Only | Print | Product List | Glossary Off
Versions: 1 2 3 4 5 6 7 8 9 10 11 12 13 14 15 16 17 18 19 20 21 22 23 24 25 26 27 28 29 30 31 32 33 34 35 36 37 38 39 40 41 42 43 44 45 46 47 48 49 50

000
ASUS44 KLZK 271705
RWRLZK

WEATHER ROUNDUP FOR ARKANSAS
NATIONAL WEATHER SERVICE LITTLE ROCK AR
1200 PM CDT WED AUG 27 2014

NOTE: "FAIR" INDICATES FEW OR NO CLOUDS BELOW 12,000 FEET WITH NO
SIGNIFICANT WEATHER AND/OR OBSTRUCTIONS TO VISIBILITY.

ARZ001-003-010-029-271800-
NORTHWEST ARKANSAS

CITY           SKY/WX    TMP DP  RH WIND       PRES   REMARKS
FAYETTEVILLE   PTSUNNY   88  69  53 N5        30.14F HX  92
FORT SMITH     SUNNY     89  69  51 S6        30.09F HX  93
HARRISON       PTSUNNY   88  69  53 CALM      30.14F HX  92
BENTONVILLE    CLOUDY    88  70  55 NW7       30.16F HX  92
ROGERS         PTSUNNY   87  68  52 N3        30.15F HX  90
HIGHFILL       MOSUNNY   87  67  51 VRB5      30.14F HX  90
SPRINGDALE     MOSUNNY   88  70  55 W7        30.16F HX  92
$$

ARZ004-005-016-271800-
NORTH CENTRAL ARKANSAS

CITY           SKY/WX    TMP DP  RH WIND       PRES   REMARKS
BATESVILLE     MOSUNNY   91  70  49 CALM      30.09F HX  97
FLIPPIN        SUNNY     90  66  45 E3        30.11F HX  92
MTN HOME       MOSUNNY   91  70  49 VRB5      30.10F HX  96
$$

ARZ040-041-271800-
WEST CENTRAL ARKANSAS

CITY           SKY/WX    TMP DP  RH WIND       PRES   REMARKS
MENA           SUNNY     88  70  55 CALM      30.14S HX  92
MOUNT IDA      SUNNY     87  70  56 VRB3      30.10F HX  92
$$

ARZ009-017-025-026-028-271800-
NORTHEAST ARKANSAS

CITY           SKY/WX    TMP DP  RH WIND       PRES   REMARKS
CORNING        LGT RAIN  90  73  58 S5        30.09F HX  98
JONESBORO      SUNNY     91  69  48 E3        30.09F HX  96
NEWPORT        MOSUNNY   91  73  55 VRB7      30.10F HAZE    HX  99
WALNUT RIDGE   MOSUNNY   90  68  48 S6        30.08F HX  93
BLYTHEVILLE    SUNNY     87  73  62 CALM      30.11F HX  94
$$

ARZ022-023-033-042-044-271800-
CENTRAL ARKANSAS

CITY           SKY/WX    TMP DP  RH WIND       PRES   REMARKS
LITTLE ROCK    PTSUNNY   89  70  53 S5        30.09F HX  94
N LITTLE ROCK  PTSUNNY   84  74  72 CALM      30.09F HX  91
JACKSONVILLE   PTSUNNY   87  74  65 VRB3      30.09F HX  95
SEARCY         MOSUNNY   90  73  57 N3        30.10F HX  98
HOT SPRINGS    SUNNY     87  67  51 CALM      30.11F HX  90
RUSSELLVILLE   MOSUNNY   89  73  59 CALM      30.10S HX  97
CLINTON        FAIR      90  73  58 CALM      30.10F HX  98
$$

ARZ036-271800-
EAST ARKANSAS

CITY           SKY/WX    TMP DP  RH WIND       PRES   REMARKS
WEST MEMPHIS   MOSUNNY   89  70  53 E5        30.09F HX  94
$$

ARZ050-053-066-070-073-271800-
SOUTHWEST ARKANSAS

CITY           SKY/WX    TMP DP  RH WIND       PRES   REMARKS
ARKADELPHIA    FAIR      89  72  57 SE5       30.10F HX  96
CAMDEN         MOSUNNY   90  68  48 CALM      30.08F HX  93
TEXARKANA      SUNNY     89  63  41 SE8       30.08F HX  90
EL DORADO      SUNNY     87  65  47 VRB3      30.08F HX  89
DE QUEEN       SUNNY     89  68  49 VRB5      30.08S HX  93
$$

ARZ056-057-069-271800-
SOUTHEAST ARKANSAS

CITY           SKY/WX    TMP DP  RH WIND       PRES   REMARKS
PINE BLUFF     SUNNY     87  70  56 NE5       30.09F HX  92
STUTTGART      MOSUNNY   88  72  58 N3        30.11F HX  94
MONTICELLO     SUNNY     89  66  46 VRB3      30.08F HX  91

$$





USA.gov is the U.S. government's official web portal to all federal, state and local government web resources and services.